This demonstration page uses our WeatherBlox Daily Observations layout. Learn more.

Left ArrowRight Arrow

38.20091, -84.87328

Hourly Observations for July 1, 2018

Temp ( °F °C ) Dew Point ( °F °C ) Humidity (%) Winds ( mph kmh ) Pressure ( in mb ) Visibility ( mi km ) Precip ( " mm )
12:53 am 00:53 Clear 76 24.4 71 21.7 85 85 Calm 29.98 1015 10 16 0.00 0.00
1:53 am 01:53 Clear 78 25.6 71 21.7 79 79 Calm 29.98 1015 10 16 0.00 0.00
2:53 am 02:53 Clear 75 23.9 71 21.7 88 88 Calm 29.98 1015 10 16 0.00 0.00
3:53 am 03:53 Clear 74 23.3 70 21.1 88 88 Calm 29.99 1016 8 13 0.00 0.00
4:53 am 04:53 Clear 75 23.9 71 21.7 88 88 Calm 29.98 1015 10 16 0.00 0.00
5:53 am 05:53 Clear 73 22.8 69 20.6 87 87 Calm 29.98 1015 9 14 0.00 0.00
6:53 am 06:53 Sunny 75 23.9 70 21.1 84 84 Calm 29.99 1016 9 14 0.00 0.00
7:53 am 07:53 Sunny 79 26.1 71 21.7 77 77 S 6 9 30.01 1016 10 16 0.00 0.00
8:53 am 08:53 Sunny 82 27.8 73 22.8 74 74 S 6 9 30.02 1017 10 16 0.00 0.00
9:53 am 09:53 Sunny 85 29.4 74 23.3 70 70 VRB 5 7 30.01 1016 10 16 0.00 0.00
10:53 am 10:53 Sunny 87 30.6 74 23.3 65 65 S 6 9 30.01 1016 10 16 0.00 0.00
11:53 am 11:53 Partly Cloudy 87 30.6 73 22.8 63 63 WSW 7 11 30.01 1016 10 16 0.00 0.00
12:53 pm 12:53 Partly Cloudy with Nearby Thunderstorms 84 28.9 70 21.1 63 63 Calm 30.00 1016 10 16 0.01 0.25
1:11 pm 13:11 Mostly Sunny 88 31.1 75 23.9 66 66 SW 3 6 29.97 1015 10 16 0.00 0.00
1:53 pm 13:53 Sunny 91 32.8 74 23.3 57 57 SSW 8 13 29.97 1015 10 16 0.00 0.00
2:07 pm 14:07 Partly Cloudy with Thunderstorms 90 32.2 71 21.7 54 54 SW 10 17 29.94 1014 10 16 0.00 0.00
2:31 pm 14:31 Partly Cloudy with Thunderstorms 82 27.8 69 20.6 65 65 SSE 13 20 30.00 1016 10 16 0.00 0.00
2:53 pm 14:53 Sunny with Thunderstorms 81 27.2 70 21.1 69 69 SE 9 15 30.00 1016 10 16 0.00 0.00
3:12 pm 15:12 Partly Cloudy with Nearby Thunderstorms 81 27.2 71 21.7 72 72 ENE 10 17 29.97 1015 10 16 0.00 0.00
3:32 pm 15:32 Mostly Sunny 81 27.2 71 21.7 72 72 ENE 8 13 29.97 1015 10 16 0.00 0.00
3:53 pm 15:53 Sunny 81 27.2 71 21.7 72 72 ENE 7 11 29.98 1015 10 16 0.00 0.00
4:53 pm 16:53 Sunny 83 28.3 71 21.7 67 67 ESE 6 9 29.97 1015 10 16 0.00 0.00
5:53 pm 17:53 Sunny 85 29.4 72 22.2 65 65 S 13 20 29.96 1015 10 16 0.00 0.00
6:53 pm 18:53 Sunny 85 29.4 70 21.1 61 61 SE 12 19 29.94 1014 10 16 0.00 0.00
7:53 pm 19:53 Sunny 83 28.3 69 20.6 63 63 SSE 8 13 29.95 1014 10 16 0.00 0.00
8:53 pm 20:53 Sunny 81 27.2 69 20.6 67 67 SE 8 13 29.95 1014 10 16 0.00 0.00
9:53 pm 21:53 Clear 78 25.6 69 20.6 74 74 SE 7 11 29.97 1015 10 16 0.00 0.00
10:53 pm 22:53 Clear 77 25 69 20.6 77 77 S 8 13 29.99 1016 10 16 0.00 0.00
11:53 pm 23:53 Clear 76 24.4 70 21.1 82 82 S 3 6 30.01 1016 10 16 0.00 0.00

Powered by AerisWeather